TimeEDT,TemperatureF,Dew PointF,Humidity,Sea Level PressureIn,VisibilityMPH,Wind Direction,Wind SpeedMPH,Gust SpeedMPH,PrecipitationIn,Events,Conditions,WindDirDegrees,DateUTC
12:06 AM,46.4,46.4,100,30.14,3.0,Calm,Calm,-,N/A,,Clear,0,2012-10-27 04:06:00
12:27 AM,46.4,46.4,100,30.13,1.5,Calm,Calm,-,N/A,,Clear,0,2012-10-27 04:27:00
12:37 AM,44.6,44.6,100,30.13,4.0,Calm,Calm,-,N/A,,Clear,0,2012-10-27 04:37:00
12:48 AM,46.4,44.6,93,30.13,2.0,Calm,Calm,-,N/A,,Clear,0,2012-10-27 04:48:00
12:51 AM,46.4,44.6,93,30.13,1.8,Calm,Calm,-,N/A,,Clear,0,2012-10-27 04:51:00
12:58 AM,46.4,44.6,93,30.13,2.5,Calm,Calm,-,N/A,,Clear,0,2012-10-27 04:58:00
1:02 AM,46.4,44.6,93,30.13,2.0,Calm,Calm,-,N/A,,Partly Cloudy,0,2012-10-27 05:02:00
1:04 AM,44.6,44.6,100,30.13,1.2,Calm,Calm,-,N/A,,Partly Cloudy,0,2012-10-27 05:04:00
1:07 AM,46.4,44.6,93,30.13,0.8,Calm,Calm,-,N/A,,Mist,0,2012-10-27 05:07:00
1:14 AM,46.4,44.6,93,30.13,1.2,Calm,Calm,-,N/A,,Partly Cloudy,0,2012-10-27 05:14:00
1:16 AM,46.4,44.6,93,30.13,2.0,Calm,Calm,-,N/A,,Partly Cloudy,0,2012-10-27 05:16:00
1:24 AM,46.4,44.6,93,30.12,5.0,Calm,Calm,-,N/A,,Partly Cloudy,0,2012-10-27 05:24:00
1:51 AM,46.0,44.1,93,30.12,4.0,Calm,Calm,-,N/A,,Clear,0,2012-10-27 05:51:00
2:01 AM,44.6,44.6,100,30.12,1.8,Calm,Calm,-,N/A,,Clear,0,2012-10-27 06:01:00
2:11 AM,46.4,44.6,93,30.12,3.0,Calm,Calm,-,N/A,,Clear,0,2012-10-27 06:11:00
2:27 AM,44.6,42.8,93,30.11,1.8,WNW,4.6,-,N/A,,Clear,290,2012-10-27 06:27:00
2:39 AM,44.6,44.6,100,30.11,0.2,Calm,Calm,-,N/A,Fog,Fog,0,2012-10-27 06:39:00
2:51 AM,44.1,44.1,100,30.10,0.2,Calm,Calm,-,N/A,Fog,Fog,0,2012-10-27 06:51:00
3:06 AM,44.6,44.6,100,30.10,0.8,Calm,Calm,-,N/A,,Mist,0,2012-10-27 07:06:00
3:39 AM,44.6,44.6,100,30.10,1.5,Calm,Calm,-,N/A,,Overcast,0,2012-10-27 07:39:00
3:47 AM,44.6,44.6,100,30.09,2.5,Calm,Calm,-,N/A,,Overcast,0,2012-10-27 07:47:00
3:51 AM,45.0,44.1,97,30.09,2.5,Calm,Calm,-,N/A,,Overcast,0,2012-10-27 07:51:00
3:56 AM,44.6,44.6,100,30.09,1.0,Calm,Calm,-,N/A,,Overcast,0,2012-10-27 07:56:00
4:02 AM,44.6,44.6,100,30.09,0.2,Calm,Calm,-,N/A,Fog,Fog,0,2012-10-27 08:02:00
4:44 AM,44.6,44.6,100,30.09,0.5,Calm,Calm,-,N/A,Fog,Fog,0,2012-10-27 08:44:00
4:51 AM,44.1,44.1,100,30.09,0.5,Calm,Calm,-,N/A,Fog,Fog,0,2012-10-27 08:51:00
5:39 AM,44.6,42.8,93,30.08,0.2,North,3.5,-,N/A,Fog,Fog,350,2012-10-27 09:39:00
5:51 AM,44.1,43.0,96,30.09,0.2,North,4.6,-,N/A,Fog,Fog,350,2012-10-27 09:51:00
6:12 AM,44.6,44.6,100,30.09,0.5,North,4.6,-,N/A,Fog,Fog,350,2012-10-27 10:12:00
6:21 AM,44.6,44.6,100,30.09,2.5,North,3.5,-,N/A,,Mostly Cloudy,350,2012-10-27 10:21:00
6:51 AM,45.0,44.1,97,30.09,2.5,North,3.5,-,N/A,,Mostly Cloudy,350,2012-10-27 10:51:00
6:53 AM,44.6,44.6,100,30.09,1.0,North,3.5,-,N/A,,Mostly Cloudy,360,2012-10-27 10:53:00
7:51 AM,46.0,46.0,100,30.11,0.8,NNW,3.5,-,N/A,,Overcast,340,2012-10-27 11:51:00
8:51 AM,48.0,46.9,96,30.12,0.8,Calm,Calm,-,N/A,,Overcast,0,2012-10-27 12:51:00
9:51 AM,50.0,48.2,94,30.12,0.2,Calm,Calm,-,N/A,Fog,Fog,0,2012-10-27 13:51:00
10:51 AM,51.1,51.1,100,30.12,1.2,Calm,Calm,-,N/A,,Mostly Cloudy,0,2012-10-27 14:51:00
11:11 AM,53.6,51.8,94,30.11,5.0,Calm,Calm,-,N/A,,Mostly Cloudy,0,2012-10-27 15:11:00
11:19 AM,51.8,51.8,100,30.10,6.0,Calm,Calm,-,N/A,,Scattered Clouds,0,2012-10-27 15:19:00
11:51 AM,57.0,51.1,81,30.10,10.0,Calm,Calm,-,N/A,,Partly Cloudy,0,2012-10-27 15:51:00
12:51 PM,59.0,51.1,75,30.09,10.0,Variable,4.6,-,N/A,,Partly Cloudy,0,2012-10-27 16:51:00
1:51 PM,60.1,48.0,64,30.06,10.0,East,6.9,-,N/A,,Clear,100,2012-10-27 17:51:00
2:51 PM,60.1,48.0,64,30.05,10.0,East,6.9,-,N/A,,Clear,90,2012-10-27 18:51:00
3:51 PM,57.9,48.9,72,30.05,10.0,East,5.8,-,N/A,,Scattered Clouds,100,2012-10-27 19:51:00
4:51 PM,55.0,50.0,83,30.05,10.0,East,6.9,-,N/A,,Clear,100,2012-10-27 20:51:00
5:51 PM,52.0,48.9,89,30.06,10.0,Variable,6.9,-,N/A,,Clear,0,2012-10-27 21:51:00
6:09 PM,51.8,50.0,94,30.06,1.0,East,5.8,-,N/A,,Mist,100,2012-10-27 22:09:00
6:16 PM,51.8,50.0,94,30.06,0.5,East,3.5,-,N/A,Fog,Fog,100,2012-10-27 22:16:00
6:34 PM,51.8,51.8,100,30.07,2.0,Calm,Calm,-,N/A,,Overcast,0,2012-10-27 22:34:00
6:39 PM,51.8,51.8,100,30.06,4.0,Calm,Calm,-,N/A,,Partly Cloudy,0,2012-10-27 22:39:00
6:51 PM,52.0,51.1,97,30.07,4.0,Calm,Calm,-,N/A,,Scattered Clouds,0,2012-10-27 22:51:00
7:47 PM,51.8,48.2,88,30.07,1.2,Calm,Calm,-,N/A,,Scattered Clouds,0,2012-10-27 23:47:00
7:51 PM,51.1,50.0,96,30.07,1.2,Calm,Calm,-,N/A,,Scattered Clouds,0,2012-10-27 23:51:00
7:58 PM,51.8,50.0,94,30.07,3.0,Calm,Calm,-,N/A,,Overcast,0,2012-10-27 23:58:00
8:51 PM,50.0,48.9,96,30.08,4.0,NNW,3.5,-,N/A,,Mostly Cloudy,340,2012-10-28 00:51:00
9:51 PM,52.0,50.0,93,30.08,5.0,North,3.5,-,N/A,,Overcast,350,2012-10-28 01:51:00
10:51 PM,51.1,48.0,89,30.07,10.0,NNW,3.5,-,N/A,,Mostly Cloudy,330,2012-10-28 02:51:00
11:51 PM,50.0,48.0,93,30.07,10.0,Calm,Calm,-,N/A,,Overcast,0,2012-10-28 03:51:00